Regional Weather Roundup
Issued by NWS

Home | Current Version | Previous Version | Text Only | Print | Product List | Glossary On
Versions: 1 2 3 4 5 6 7 8 9 10 11 12 13 14 15 16 17 18 19 20 21 22 23 24 25 26 27 28 29 30 31 32 33 34 35 36 37 38 39 40 41 42 43 44 45 46 47 48 49 50
000
ASUS43 KLSX 231407
RWRMO

WEATHER SUMMARY FOR MISSOURI
NATIONAL WEATHER SERVICE SPRINGFIELD MO
900 AM CDT WED JUL 23 2014

NOTE: "FAIR" INDICATES FEW OR NO CLOUDS BELOW 12,000 FEET WITH NO
       SIGNIFICANT WEATHER AND/OR OBSTRUCTIONS TO VISIBILITY.
       CURRENT SKY AND/OR WEATHER CONDITIONS ARE NOT AVAILABLE FOR
       CHILLICOTHE AND FARMINGTON.

MOZ001>031-035>038-043-044-053-054-231500-
...NORTHERN AND WESTERN MISSOURI...

CITY           SKY/WX    TMP DP  RH WIND       PRES   REMARKS
KANSAS CTY INT MOSUNNY   76  66  71 NE10      30.16S
KANSAS C DTWN  SUNNY     80  66  62 NE7       30.13F
LEE`S SUMMIT   SUNNY     77  66  68 NE12      30.15R
ST JOSEPH      SUNNY     75  66  73 NE7       30.17S
CHILLICOTHE      N/A     77  65  66 NE9       30.16R
KIRKSVILLE     SUNNY     75  67  76 NE12      30.15R

$$
MOZ066>068-077>081-088>096-101>105-231500-
...SOUTHWEST MISSOURI...

CITY           SKY/WX    TMP DP  RH WIND       PRES   REMARKS
SPRINGFIELD    MOSUNNY   82  76  81 NW10      30.10R
JOPLIN         SUNNY     83  75  77 W8        30.11R HX  90

$$
MOZ032>034-039>042-045>050-055>058-069>072-231500-
...CENTRAL MISSOURI...

CITY           SKY/WX    TMP DP  RH WIND       PRES   REMARKS
COLUMBIA       SUNNY     80  70  71 N12       30.11R
JEFFERSON CITY MOSUNNY   80  71  74 N9        30.08R
ROLLA          PTSUNNY   81  75  82 NE8       30.08R
SEDALIA        SUNNY     79  69  71 NE9       30.13R
WHITEMAN AFB   SUNNY     77  61  56 N10       30.12R
OSAGE BEACH    SUNNY     81  72  74 N5        30.08S

$$
MOZ051-052-059>065-231500-
...EAST CENTRAL MISSOURI...

CITY           SKY/WX    TMP DP  RH WIND       PRES   REMARKS
ST LOUIS INTL  CLOUDY    81  74  79 N9        30.06R
SPIRIT OF STL  CLOUDY    80  73  79 N8        30.06R
ST CHARLES     CLOUDY    80  74  81 NE10      30.05R

$$
MOZ072>076-082>087-097>100-106>115-231500-
...SOUTH CENTRAL AND SOUTHEAST MISSOURI...

CITY           SKY/WX    TMP DP  RH WIND       PRES   REMARKS
CAPE GIRARDEAU CLOUDY    78  72  81 SW5       30.03S
FARMINGTON     CLOUDY    81  73  78 N3        30.08R
POPLAR BLUFF   PTSUNNY   77  69  76 S6        30.03S
WEST PLAINS    MOSUNNY   80  73  79 W3        30.09S

$$


USA.gov is the U.S. government's official web portal to all federal, state and local government web resources and services.